Regional Weather Roundup
Issued by NWS Little Rock, AR

Home | Current Version | Previous Version | Graphics & Text | Print | Product List | Glossary On
Versions: 1 2 3 4 5 6 7 8 9 10 11 12 13 14 15 16 17 18 19 20 21 22 23 24 25 26 27 28 29 30 31 32
000
ASUS44 KLZK 180012
RWRLZK

WEATHER ROUNDUP FOR ARKANSAS
NATIONAL WEATHER SERVICE LITTLE ROCK AR
600 PM CST SUN DEC 17 2017

NOTE: "FAIR" INDICATES FEW OR NO CLOUDS BELOW 12,000 FEET WITH NO
SIGNIFICANT WEATHER AND/OR OBSTRUCTIONS TO VISIBILITY.

ARZ001-003-010-029-180100-
NORTHWEST ARKANSAS

CITY           SKY/WX    TMP DP  RH WIND       PRES   REMARKS
FAYETTEVILLE   CLOUDY    47  47 100 SW5       30.08R
6HR MIN TEMP:  47; 6HR MAX TEMP:  49;

FORT SMITH     CLOUDY    49  49 100 CALM      30.09R FOG
6HR MIN TEMP:  49; 6HR MAX TEMP:  50;

HARRISON       FOG       47  47 100 CALM      30.07R VSB 3/4
6HR MIN TEMP:  46; 6HR MAX TEMP:  48;

BENTONVILLE    CLOUDY    46  44  93 SW5       30.08R
6HR MIN TEMP:  45; 6HR MAX TEMP:  46;

ROGERS         CLOUDY    46  45  96 CALM      30.07S
6HR MIN TEMP:  45; 6HR MAX TEMP:  47;

SILOAM SPGS    CLOUDY    46  45  96 SW5       30.08R FOG
6HR MIN TEMP:  45; 6HR MAX TEMP:  46; 6HR PCP: TRACE;

HIGHFILL       CLOUDY    46  46 100 SW5       30.06R
6HR MIN TEMP:  45; 6HR MAX TEMP:  47;

SPRINGDALE     CLOUDY    46  46 100 SW5       30.08R
$$

ARZ004-005-016-180100-
NORTH CENTRAL ARKANSAS

CITY           SKY/WX    TMP DP  RH WIND       PRES   REMARKS
BATESVILLE     CLOUDY    47  45  93 S3        30.11R
6HR MIN TEMP:  45; 6HR MAX TEMP:  48;

FLIPPIN        CLOUDY    49  47  93 CALM      30.09R
6HR MIN TEMP:  47; 6HR MAX TEMP:  50;

MTN HOME       CLOUDY    47  47 100 SE3       30.07R
6HR MIN TEMP:  46; 6HR MAX TEMP:  48;

$$

ARZ040-041-180100-
WEST CENTRAL ARKANSAS

CITY           SKY/WX    TMP DP  RH WIND       PRES   REMARKS
MENA           CLOUDY    50  48  93 CALM      30.08S
MOUNT IDA      CLOUDY    48  48 100 CALM      30.07R FOG
6HR MIN TEMP:  47; 6HR MAX TEMP:  51;

$$

ARZ009-017-025-026-028-180100-
NORTHEAST ARKANSAS

CITY           SKY/WX    TMP DP  RH WIND       PRES   REMARKS
JONESBORO      CLOUDY    48  46  93 S7        30.12R
6HR MIN TEMP:  47; 6HR MAX TEMP:  49;

NEWPORT        CLOUDY    46  44  93 S7        30.12R
6HR MIN TEMP:  45; 6HR MAX TEMP:  47;

WALNUT RIDGE   CLOUDY    46  43  89 S5        30.10R
6HR MIN TEMP:  45; 6HR MAX TEMP:  47;

BLYTHEVILLE    CLOUDY    47  47 100 CALM      30.13R
6HR MIN TEMP:  47; 6HR MAX TEMP:  48;

$$

ARZ022-023-033-042-044-180100-
CENTRAL ARKANSAS

CITY           SKY/WX    TMP DP  RH WIND       PRES   REMARKS
LITTLE ROCK    CLOUDY    45  45 100 SE3       30.12R FOG
6HR MIN TEMP:  44; 6HR MAX TEMP:  46;

N LITTLE ROCK    N/A     45  44  96 CALM      30.14R
6HR MIN TEMP:  44; 6HR MAX TEMP:  45;

JACKSONVILLE   CLOUDY    46  46  99 CALM      30.11R FOG
6HR MIN TEMP:  45; 6HR MAX TEMP:  46;

SEARCY         CLOUDY    45  45 100 S3        30.12R FOG
6HR MIN TEMP:  45; 6HR MAX TEMP:  47;

HOT SPRINGS    CLOUDY    48  48 100 CALM      30.11R FOG
6HR MIN TEMP:  46; 6HR MAX TEMP:  49;

RUSSELLVILLE   CLOUDY    48  47  96 E5        30.09R
6HR MIN TEMP:  48; 6HR MAX TEMP:  50;

CLINTON        CLOUDY    48  46  93 CALM      30.10R
$$

ARZ036-180100-
EAST ARKANSAS

CITY           SKY/WX    TMP DP  RH WIND       PRES   REMARKS
WEST MEMPHIS   CLOUDY    45  45 100 S3        30.12R FOG
6HR MIN TEMP:  45; 6HR MAX TEMP:  47;

$$

ARZ050-053-066-070-073-180100-
SOUTHWEST ARKANSAS

CITY           SKY/WX    TMP DP  RH WIND       PRES   REMARKS
ARKADELPHIA    CLOUDY    46  45  96 CALM      30.12R FOG
6HR MIN TEMP:  45; 6HR MAX TEMP:  47;

CAMDEN         CLOUDY    46  43  87 CALM      30.12R FOG
TEXARKANA      FOG       46  46 100 CALM      30.10S VSB 1
6HR MIN TEMP:  45; 6HR MAX TEMP:  47;

EL DORADO      FOG       46  46 100 SE3       30.13R VSB 1
6HR MIN TEMP:  45; 6HR MAX TEMP:  48;

DE QUEEN       FOG       47  47 100 CALM      30.08S VSB 3/4
6HR MIN TEMP:  47; 6HR MAX TEMP:  49;

$$

ARZ056-057-069-180100-
SOUTHEAST ARKANSAS

CITY           SKY/WX    TMP DP  RH WIND       PRES   REMARKS
PINE BLUFF     CLOUDY    45  44  97 E3        30.12R FOG
6HR MIN TEMP:  44; 6HR MAX TEMP:  46;

STUTTGART      CLOUDY    45  44  97 CALM      30.13R
6HR MIN TEMP:  44; 6HR MAX TEMP:  46;

MONTICELLO     FOG       46  44  93 E3        30.12R VSB 3/4
6HR MIN TEMP:  45; 6HR MAX TEMP:  47;


$$






USA.gov is the U.S. government's official web portal to all federal, state and local government web resources and services.